Location: Bright Sky Observatory
(40.7821°N, 74.2425°W)
Time: 20:22:42
(UTC-04:00)

Amateur Radio Satellites - All Passes

Search period start: 26 June 2016 19:52
Search period end: 27 June 2016 19:52
Location: Bright Sky Observatory, 40.7821°N, 74.2425°W

Satellite Date Start Highest point End Downlink Frequencies (MHz)
Time Altitude Azimuth
SEEDS 26 Jun 20:00:24 20:04:25 43° 72° (ENE) 20:08:28 437.485
DOVE 4 26 Jun 20:01:32 20:05:27 31° 263° (W) 20:09:15 437.250
Cubesat XI-IV 26 Jun 20:05:45 20:07:53 12° 271° (W) 20:10:03 437.490
Cosmos 2499 26 Jun 20:18:11 20:26:14 56° 283° (WNW) 20:34:52 435.465 / 435.565
ZACube-1 26 Jun 20:25:43 20:28:31 18° 65° (ENE) 20:31:21 437.345
HO-68 26 Jun 20:26:55 20:34:03 71° 256° (WSW) 20:41:15 435.675
Oscar 11 26 Jun 20:39:02 20:42:40 27° 69° (ENE) 20:46:20 145.826/435.025
UWE-3 26 Jun 20:40:27 20:44:17 37° 71° (ENE) 20:48:14 435.000/436.395/437.385
FUNcube-1 26 Jun 20:43:46 20:47:12 25° 68° (ENE) 20:50:43 145.935
AAUSAT CUBESAT 2 26 Jun 20:45:44 20:49:55 80° 76° (ENE) 20:54:09 437.432
AUBIESAT-1 26 Jun 20:46:45 20:50:02 64° 70° (ENE) 20:53:19 437.475
GONETS M04 26 Jun 20:49:26 20:56:28 27° 293° (WNW) 21:03:34
CANX-2 26 Jun 21:08:35 21:11:49 21° 267° (W) 21:15:03 2200.000
DANDE 26 Jun 21:13:01 21:15:03 13° 282° (WNW) 21:16:54 436.750
CINEMA 3 26 Jun 21:14:29 21:17:17 17° 267° (W) 21:20:06 145.822/145.860
STRAND 1 26 Jun 21:15:37 21:20:07 31° 293° (WNW) 21:24:35 437.568
DELFI C3 26 Jun 21:16:25 21:19:56 29° 70° (ENE) 21:23:28 145.870
COMPASS 1 26 Jun 21:18:06 21:21:57 34° 263° (W) 21:25:49 437.405
CUBEBUG 2 26 Jun 21:24:44 21:28:40 44° 261° (W) 21:32:44 437.445
M-CUBED/EXP-1 PRIME 26 Jun 21:24:44 21:27:36 27° 257° (WSW) 21:30:27 437.505
CUTE 1.7 + AOD 2 26 Jun 21:30:07 21:32:24 14° 269° (W) 21:34:43 437.475
PRISM 26 Jun 21:36:00 21:40:07 87° 109° (ESE) 21:44:11 437.425
SEEDS 26 Jun 21:37:43 21:40:19 16° 268° (W) 21:42:56 437.485
HUMSAT D 26 Jun 21:56:27 22:00:19 39° 72° (ENE) 22:04:16 437.325/437.525
RS-15 26 Jun 21:57:34 22:09:55 80° 242° (WSW) 22:22:06 29.354- 29.394
ZACube-1 26 Jun 22:00:33 22:04:28 39° 262° (W) 22:08:30 437.345
Oscar 11 26 Jun 22:15:04 22:18:43 26° 265° (W) 22:22:24 145.826/435.025
AO-85 26 Jun 22:15:23 22:20:48 73° 120° (ESE) 22:26:05 145.980
UWE-3 26 Jun 22:18:08 22:20:56 17° 268° (W) 22:23:46 435.000/436.395/437.385
Cosmos 2499 26 Jun 22:19:51 22:21:40 11° 306° (NW) 22:23:30 435.465 / 435.565
FUNcube-1 26 Jun 22:19:52 22:23:22 26° 265° (W) 22:26:58 145.935
HO-68 26 Jun 22:21:38 22:22:56 10° 274° (W) 22:24:15 435.675
ANTELSAT 26 Jun 22:25:57 22:29:29 21° 94° (E) 22:33:03 437.575/2403.000
50 SAT 26 Jun 22:33:10 22:33:35 10° 63° (ENE) 22:33:59 437.505
ESTCUBE 1 26 Jun 22:49:04 22:52:59 29° 69° (ENE) 22:56:54 437.505/2401.250
DELFI C3 26 Jun 22:51:45 22:54:48 21° 266° (W) 22:57:52 145.870
AISAT 26 Jun 23:02:10 23:05:50 26° 68° (ENE) 23:09:30 437.250
YUBILEINY 26 Jun 23:04:22 23:11:22 25° 66° (ENE) 23:18:19 435.215
UKube-1 26 Jun 23:14:09 23:17:25 21° 66° (ENE) 23:20:41 .
TIGRISAT 26 Jun 23:17:23 23:22:01 71° 102° (ESE) 23:26:42 435.000
SPROUT 26 Jun 23:20:24 23:23:02 16° 65° (ENE) 23:25:42 437.525
UNISAT 6 26 Jun 23:21:47 23:26:27 83° 102° (ESE) 23:31:09 437.425
DX 1 26 Jun 23:29:13 23:33:14 38° 71° (ENE) 23:37:16 434.975-435.025
HUMSAT D 26 Jun 23:33:27 23:36:07 17° 268° (W) 23:38:49 437.325/437.525
Cosmos 2504 26 Jun 23:37:58 23:41:21 12° 56° (NE) 23:44:42 435.465 / 435.565
SO-50 26 Jun 23:38:51 23:40:25 11° 34° (NE) 23:42:00 436.795
CUBEBUG 1 26 Jun 23:54:28 23:58:50 82° 258° (WSW) 00:03:13 437.445
BUGSAT 1 26 Jun 23:54:33 23:55:41 11° 91° (E) 23:56:50 437.445
VELOX 1 26 Jun 23:57:01 00:01:26 83° 255° (WSW) 00:05:53 145.980
AO-85 26 Jun 23:57:47 00:01:48 21° 317° (NW) 00:05:42 145.980
NANOSAT C BR1 27 Jun 00:01:34 00:05:27 34° 98° (E) 00:09:19 145.865
ANTELSAT 27 Jun 00:02:00 00:06:17 38° 289° (WNW) 00:10:37 437.575/2403.000
50 SAT 27 Jun 00:03:06 00:06:44 57° 259° (W) 00:10:26 437.505
QB50P1 27 Jun 00:03:17 00:07:15 37° 98° (E) 00:11:12 145.935-145.965
POPSAT HIP 1 27 Jun 00:06:15 00:10:16 40° 98° (E) 00:14:17 437.405
RS-15 27 Jun 00:12:42 00:20:22 19° 263° (W) 00:27:59 29.354- 29.394
Cosmos 2491 27 Jun 00:13:08 00:20:39 33° 84° (E) 00:28:08 435.465 / 435.565
QB50P2 27 Jun 00:17:54 00:22:08 59° 101° (E) 00:26:20 145.880/145.840
JAS-2 27 Jun 00:20:25 00:23:01 13° 87° (E) 00:25:32 435.910
POLYITAN 1 27 Jun 00:20:31 00:24:45 61° 101° (E) 00:28:59 437.675
DUCHIFAT 1 27 Jun 00:22:56 00:27:07 56° 100° (E) 00:31:17 145.980
ESTCUBE 1 27 Jun 00:25:55 00:29:44 26° 265° (W) 00:33:35 437.505/2401.250
AISAT 27 Jun 00:38:25 00:42:13 28° 264° (W) 00:46:01 437.250
TISAT 1 27 Jun 00:46:50 00:50:39 36° 71° (ENE) 00:54:29 437.305
UKube-1 27 Jun 00:49:20 00:53:14 34° 262° (W) 00:57:11 .
SPROUT 27 Jun 00:54:35 00:58:38 44° 261° (W) 01:02:43 437.525
TIGRISAT 27 Jun 00:56:03 00:58:08 13° 298° (WNW) 01:00:13 435.000
YUBILEINY 27 Jun 01:00:11 01:08:58 72° 267° (W) 01:17:44 435.215
UNISAT 6 27 Jun 01:01:13 01:02:30 11° 299° (WNW) 01:03:46 437.425
DX 1 27 Jun 01:06:29 01:09:33 19° 266° (W) 01:12:37 434.975-435.025
Oscar 19 27 Jun 01:11:58 01:14:40 14° 91° (E) 01:17:20 437.125/150
SO-50 27 Jun 01:17:13 01:21:53 64° 55° (NE) 01:26:22 436.795
BUGSAT 1 27 Jun 01:27:23 01:31:24 57° 286° (WNW) 01:35:26 437.445
Cosmos 2504 27 Jun 01:27:59 01:36:49 62° 78° (ENE) 01:45:17 435.465 / 435.565
NANOSAT C BR1 27 Jun 01:37:48 01:40:57 20° 293° (WNW) 01:44:06 145.865
QB50P1 27 Jun 01:39:46 01:42:45 19° 294° (WNW) 01:45:44 145.935-145.965
POPSAT HIP 1 27 Jun 01:42:52 01:45:45 18° 294° (WNW) 01:48:38 437.405
SWISSCUBE 27 Jun 01:52:28 01:56:57 42° 71° (ENE) 02:01:28 437.505
QB50P2 27 Jun 01:55:31 01:57:26 13° 297° (WNW) 01:59:20 145.880/145.840
POLYITAN 1 27 Jun 01:58:12 02:00:02 13° 297° (WNW) 02:01:53 437.675
DUCHIFAT 1 27 Jun 02:00:19 02:02:20 13° 296° (WNW) 02:04:20 145.980
JAS-2 27 Jun 02:03:10 02:08:54 71° 287° (WNW) 02:14:08 435.910
Cosmos 2491 27 Jun 02:08:33 02:17:03 53° 284° (WNW) 02:25:35 435.465 / 435.565
ITUPSAT 1 27 Jun 02:17:25 02:22:10 66° 74° (ENE) 02:26:57 437.325
BEESAT 27 Jun 02:17:42 02:22:26 68° 74° (ENE) 02:27:13 436.000
TISAT 1 27 Jun 02:23:34 02:26:25 18° 267° (W) 02:29:17 437.305
PCSat 27 Jun 02:30:23 02:35:35 50° 113° (ESE) 02:40:50 145.827
BEESAT 3 27 Jun 02:42:49 02:46:12 28° 114° (ESE) 02:49:37 437.485
Oscar 19 27 Jun 02:49:21 02:54:26 66° 287° (WNW) 02:59:30 437.125/150
Gurwin Techsat 1B 27 Jun 02:50:46 02:56:01 56° 100° (E) 03:01:14 435.225
AO-7 27 Jun 02:56:13 02:59:11 12° 87° (E) 03:02:08 29.400- 29.500
SO-50 27 Jun 02:59:26 03:01:46 14° 252° (WSW) 03:04:03 436.795
YUBILEINY 27 Jun 03:00:49 03:04:02 12° 286° (WNW) 03:07:16 435.215
ITAMSAT 1 27 Jun 03:08:01 03:12:30 28° 96° (E) 03:16:58 435.822/435.867
MOZHAYETS 4 27 Jun 03:14:34 03:18:28 28° 68° (ENE) 03:22:24
BEESAT 2 27 Jun 03:16:34 03:20:13 37° 116° (ESE) 03:23:54 435.950
O/OREOS (USA 219) 27 Jun 03:21:42 03:26:11 75° 110° (ESE) 03:30:41 437.305
Cosmos 2504 27 Jun 03:22:18 03:29:32 29° 278° (W) 03:36:35 435.465 / 435.565
SWISSCUBE 27 Jun 03:31:22 03:34:54 20° 266° (W) 03:38:28 437.505
KKS-1 27 Jun 03:37:29 03:41:48 54° 73° (ENE) 03:46:07 437.445
ITUPSAT 1 27 Jun 03:58:19 04:00:27 13° 270° (W) 04:02:35 437.325
BEESAT 27 Jun 03:58:44 04:00:40 12° 270° (W) 04:02:38 436.000
STARS 27 Jun 04:14:41 04:19:00 70° 75° (ENE) 04:23:21 437.465
PCSat 27 Jun 04:14:46 04:19:14 26° 312° (NW) 04:23:45 145.827
BEESAT 3 27 Jun 04:20:33 04:23:51 25° 312° (NW) 04:27:11 437.485
Cosmos 2499 27 Jun 04:20:53 04:23:00 11° 54° (NE) 04:25:05 435.465 / 435.565
Gurwin Techsat 1B 27 Jun 04:31:47 04:35:31 20° 297° (WNW) 04:39:15 435.225
CUBESAT XI-V 27 Jun 04:37:15 04:41:03 25° 67° (ENE) 04:44:51 437.345
AO-7 27 Jun 04:44:56 04:53:20 71° 105° (ESE) 05:01:39 29.400- 29.500
ITAMSAT 1 27 Jun 04:47:15 04:51:59 35° 292° (WNW) 04:56:41 435.822/435.867
MOZHAYETS 4 27 Jun 04:51:32 04:55:33 29° 265° (W) 04:59:35
AIST 1 27 Jun 04:54:19 04:58:35 77° 262° (W) 05:02:49
HORYU 2 27 Jun 04:55:02 04:58:10 18° 94° (E) 05:01:17 437.375
BEESAT 2 27 Jun 04:55:05 04:58:10 21° 313° (NW) 05:01:16 435.950
GONETS M04 27 Jun 05:01:17 05:08:54 32° 70° (ENE) 05:16:29
O/OREOS (USA 219) 27 Jun 05:04:14 05:06:09 12° 308° (NW) 05:08:03 437.305
KKS-1 27 Jun 05:16:30 05:18:41 13° 269° (W) 05:20:52 437.445
AIST 2 27 Jun 05:20:53 05:24:47 43° 116° (ESE) 05:28:43 435.215
STARS 27 Jun 05:55:40 05:55:50 10° 270° (W) 05:55:59 437.465
BRITE-PL 27 Jun 06:09:03 06:11:56 18° 93° (E) 06:14:49 437.365/2234.400
NOAA 15 27 Jun 06:09:25 06:13:32 23° 94° (E) 06:17:38 137.62
Cosmos 2499 27 Jun 06:09:44 06:18:25 57° 77° (ENE) 06:26:34 435.465 / 435.565
CUBESAT XI-V 27 Jun 06:13:59 06:18:15 34° 263° (W) 06:22:32 437.345
NOAA 18 27 Jun 06:20:16 06:24:40 24° 94° (E) 06:29:02 137.9125
HORYU 2 27 Jun 06:30:39 06:34:53 41° 289° (WNW) 06:39:05 437.375
AO-7 27 Jun 06:38:39 06:45:24 28° 305° (NW) 06:52:07 29.400- 29.500
Cubesat XI-IV 27 Jun 06:39:43 06:44:33 32° 96° (E) 06:49:19 437.490
CUSAT 1 27 Jun 06:44:57 06:50:51 24° 88° (E) 06:56:11 437.405
AO-85 27 Jun 06:48:16 06:52:45 53° 54° (NE) 06:56:49 145.980
GOMX 1 27 Jun 06:51:07 06:54:32 24° 96° (E) 06:58:01 467.674
STRAND 1 27 Jun 06:51:53 06:56:44 45° 70° (ENE) 07:01:38 437.568
DANDE 27 Jun 06:53:12 06:57:26 15° 80° (E) 07:01:34 436.750
GONETS M04 27 Jun 06:57:40 07:06:05 56° 270° (W) 07:14:32
AIST 2 27 Jun 07:00:22 07:03:27 20° 314° (NW) 07:06:34 435.215
LilacSat-2 27 Jun 07:01:03 07:04:51 51° 100° (E) 07:08:38 437.200
PHONESAT 2.4 27 Jun 07:08:16 07:10:19 17° 151° (SSE) 07:12:22 2401.200-2431.200
CUTE-I 27 Jun 07:14:17 07:19:40 68° 102° (ESE) 07:25:01 437.470
BRITE-PL 27 Jun 07:46:50 07:50:35 33° 289° (WNW) 07:54:19 437.365/2234.400
NOAA 15 27 Jun 07:48:31 07:53:28 43° 291° (WNW) 07:58:23 137.62
HO-68 27 Jun 07:55:51 08:01:21 23° 93° (E) 08:06:49 435.675
DOVE 4 27 Jun 07:59:17 08:03:33 62° 101° (E) 08:08:02 437.250
NOAA 18 27 Jun 08:00:13 08:05:30 46° 291° (WNW) 08:10:47 137.9125
Cosmos 2499 27 Jun 08:03:38 08:10:59 31° 277° (W) 08:18:01 435.465 / 435.565
Cubesat XI-IV 27 Jun 08:19:48 08:24:33 33° 293° (WNW) 08:29:17 437.490
CUSAT 1 27 Jun 08:24:40 08:32:33 68° 281° (W) 08:39:18 437.405
PRISM 27 Jun 08:24:47 08:28:52 59° 74° (ENE) 08:32:58 437.425
GOMX 1 27 Jun 08:29:04 08:32:37 27° 290° (WNW) 08:36:15 467.674
AAUSAT CUBESAT 2 27 Jun 08:30:11 08:32:00 13° 90° (E) 08:33:48 437.432
AO-85 27 Jun 08:30:13 08:32:36 15° 253° (WSW) 08:34:54 145.980
DANDE 27 Jun 08:30:49 08:39:10 74° 96° (E) 08:47:06 436.750
STRAND 1 27 Jun 08:32:12 08:36:06 22° 267° (W) 08:40:01 437.568
LilacSat-2 27 Jun 08:37:11 08:38:42 12° 295° (WNW) 08:40:14 437.200
PHONESAT 2.4 27 Jun 08:43:33 08:46:34 58° 166° (SSE) 08:49:36 2401.200-2431.200
CANX-2 27 Jun 08:52:31 08:56:49 69° 101° (E) 09:01:04 2200.000
CUTE-I 27 Jun 08:55:49 08:59:08 17° 299° (WNW) 09:02:26 437.470
COMPASS 1 27 Jun 09:00:56 09:04:50 36° 97° (E) 09:08:40 437.405
M-CUBED/EXP-1 PRIME 27 Jun 09:03:42 09:05:52 14° 99° (E) 09:08:07 437.505
CINEMA 3 27 Jun 09:06:51 09:11:23 83° 284° (WNW) 09:16:06 145.822/145.860
CUTE 1.7 + AOD 2 27 Jun 09:12:52 09:17:10 80° 284° (WNW) 09:21:26 437.475
CUBEBUG 2 27 Jun 09:15:08 09:19:25 37° 98° (E) 09:23:47 437.445
SEEDS 27 Jun 09:19:50 09:24:06 88° 107° (ESE) 09:28:19 437.485
ANTELSAT 27 Jun 09:25:18 09:28:09 18° 65° (ENE) 09:31:03 437.575/2403.000
ISS 27 Jun 09:27:38 09:30:51 59° 140° (SE) 09:34:05 145.825
DOVE 4 27 Jun 09:39:02 09:40:49 12° 296° (WNW) 09:42:38 437.250
HO-68 27 Jun 09:42:26 09:49:34 66° 290° (WNW) 09:56:40 435.675
ZACube-1 27 Jun 09:48:35 09:52:50 38° 98° (E) 09:57:07 437.345
AUBIESAT-1 27 Jun 09:58:46 10:02:35 51° 105° (ESE) 10:06:40 437.475
Oscar 11 27 Jun 10:01:38 10:05:56 56° 100° (E) 10:10:12 145.826/435.025
PRISM 27 Jun 10:03:18 10:04:32 11° 269° (W) 10:05:46 437.425
AAUSAT CUBESAT 2 27 Jun 10:03:44 10:07:48 51° 286° (WNW) 10:11:49 437.432
UWE-3 27 Jun 10:05:45 10:10:21 90° 112° (ESE) 10:15:01 435.000/436.395/437.385
FUNcube-1 27 Jun 10:06:54 10:11:23 57° 100° (E) 10:15:53 145.935
CUSAT 1 27 Jun 10:12:25 10:15:27 13° 296° (WNW) 10:18:19 437.405
RS-15 27 Jun 10:14:52 10:20:34 15° 95° (E) 10:26:22 29.354- 29.394
TIGRISAT 27 Jun 10:15:47 10:19:58 57° 74° (ENE) 10:24:16 435.000
DANDE 27 Jun 10:15:49 10:22:34 26° 292° (WNW) 10:28:59 436.750
PHONESAT 2.4 27 Jun 10:20:04 10:23:09 86° 182° (S) 10:26:14 2401.200-2431.200
UNISAT 6 27 Jun 10:20:18 10:24:34 69° 74° (ENE) 10:28:56 437.425
Cosmos 2491 27 Jun 10:24:19 10:29:09 16° 60° (ENE) 10:33:58 435.465 / 435.565
DELFI C3 27 Jun 10:28:31 10:32:25 49° 99° (E) 10:36:16 145.870
CANX-2 27 Jun 10:30:47 10:32:04 11° 298° (WNW) 10:33:22 2200.000
M-CUBED/EXP-1 PRIME 27 Jun 10:36:51 10:40:31 45° 292° (WNW) 10:44:28 437.505
COMPASS 1 27 Jun 10:37:10 10:40:07 19° 293° (WNW) 10:43:03 437.405
CUBEBUG 2 27 Jun 10:52:17 10:55:48 22° 293° (WNW) 10:59:24 437.445
NANOSAT C BR1 27 Jun 10:53:45 10:57:09 25° 68° (ENE) 11:00:33 145.865
QB50P1 27 Jun 10:55:41 10:59:13 27° 69° (ENE) 11:02:46 145.935-145.965
POPSAT HIP 1 27 Jun 10:58:40 11:02:16 29° 69° (ENE) 11:05:54 437.405
BEESAT 3 27 Jun 11:00:20 11:03:11 19° 45° (NE) 11:06:02 437.485
ANTELSAT 27 Jun 11:00:27 11:04:32 42° 262° (W) 11:08:42 437.575/2403.000
ISS 27 Jun 11:04:50 11:07:31 23° 338° (NNW) 11:10:11 145.825
QB50P2 27 Jun 11:10:11 11:14:08 41° 72° (ENE) 11:18:06 145.880/145.840
POLYITAN 1 27 Jun 11:12:48 11:16:45 42° 72° (ENE) 11:20:44 437.675
DUCHIFAT 1 27 Jun 11:14:31 11:18:23 39° 71° (ENE) 11:22:17 145.980
HUMSAT D 27 Jun 11:15:08 11:19:29 80° 103° (ESE) 11:23:47 437.325/437.525
PCSat 27 Jun 11:18:27 11:23:32 39° 53° (NE) 11:28:35 145.827
ZACube-1 27 Jun 11:25:28 11:28:52 21° 293° (WNW) 11:32:16 437.345
HO-68 27 Jun 11:32:54 11:35:56 13° 309° (NW) 11:38:59 435.675
50 SAT 27 Jun 11:34:16 11:35:37 12° 91° (E) 11:36:58 437.505
AUBIESAT-1 27 Jun 11:34:41 11:36:45 14° 299° (WNW) 11:38:54 437.475
BEESAT 2 27 Jun 11:34:54 11:38:09 23° 47° (NE) 11:41:22 435.950
Oscar 11 27 Jun 11:39:19 11:41:35 14° 296° (WNW) 11:43:50 145.826/435.025
CUBEBUG 1 27 Jun 11:44:15 11:47:13 18° 93° (E) 11:50:11 437.445
FUNcube-1 27 Jun 11:44:37 11:47:09 15° 296° (WNW) 11:49:41 145.935
VELOX 1 27 Jun 11:48:18 11:51:22 18° 93° (E) 11:54:25 145.980
O/OREOS (USA 219) 27 Jun 11:53:58 11:56:35 15° 54° (NE) 11:59:12 437.305
TIGRISAT 27 Jun 11:55:22 11:57:03 12° 270° (W) 11:58:47 435.000
PHONESAT 2.4 27 Jun 11:56:44 11:59:39 41° 199° (SSW) 12:02:35 2401.200-2431.200
DELFI C3 27 Jun 12:04:56 12:06:50 13° 296° (WNW) 12:08:43 145.870
YUBILEINY 27 Jun 12:05:51 12:12:51 28° 82° (E) 12:19:51 435.215
JAS-2 27 Jun 12:12:31 12:19:55 53° 70° (ENE) 12:26:43 435.910
BUGSAT 1 27 Jun 12:16:31 12:20:32 89° 258° (WSW) 12:24:34 437.445
ESTCUBE 1 27 Jun 12:17:43 12:22:13 65° 101° (ESE) 12:26:39 437.505/2401.250
Cosmos 2491 27 Jun 12:18:49 12:27:34 78° 82° (E) 12:36:17 435.465 / 435.565
RS-15 27 Jun 12:19:20 12:30:35 72° 116° (ESE) 12:42:30 29.354- 29.394
AISAT 27 Jun 12:28:00 12:32:18 53° 101° (E) 12:36:35 437.250
Oscar 19 27 Jun 12:28:11 12:32:03 22° 64° (ENE) 12:35:55 437.125/150
NANOSAT C BR1 27 Jun 12:29:15 12:32:47 27° 264° (W) 12:36:21 145.865
QB50P1 27 Jun 12:31:33 12:34:57 24° 265° (W) 12:38:23 145.935-145.965
POPSAT HIP 1 27 Jun 12:34:43 12:38:03 23° 265° (W) 12:41:24 437.405
Gurwin Techsat 1B 27 Jun 12:35:57 12:37:45 12° 58° (ENE) 12:39:32 435.225
UKube-1 27 Jun 12:36:17 12:40:18 37° 98° (E) 12:44:18 .
BEESAT 3 27 Jun 12:37:18 12:41:04 44° 243° (WSW) 12:44:49 437.485
SPROUT 27 Jun 12:40:46 12:44:33 30° 96° (E) 12:48:19 437.525
ISS 27 Jun 12:43:23 12:44:52 12° 358° (N) 12:46:22 145.825
QB50P2 27 Jun 12:47:33 12:50:07 16° 268° (W) 12:52:43 145.880/145.840
POLYITAN 1 27 Jun 12:50:16 12:52:45 15° 268° (W) 12:55:16 437.675
DUCHIFAT 1 27 Jun 12:51:33 12:54:15 17° 267° (W) 12:56:57 145.980
DX 1 27 Jun 12:53:13 12:57:33 75° 102° (ESE) 13:01:53 434.975-435.025
HUMSAT D 27 Jun 12:54:15 12:54:26 10° 299° (WNW) 12:54:36 437.325/437.525
PCSat 27 Jun 13:02:07 13:06:47 30° 251° (WSW) 13:11:25 145.827
50 SAT 27 Jun 13:06:00 13:09:32 43° 287° (WNW) 13:13:00 437.505
BEESAT 2 27 Jun 13:12:25 13:16:03 33° 245° (WSW) 13:19:38 435.950
CUBEBUG 1 27 Jun 13:19:38 13:23:39 38° 289° (WNW) 13:27:39 437.445
VELOX 1 27 Jun 13:23:53 13:27:58 39° 289° (WNW) 13:32:03 145.980
O/OREOS (USA 219) 27 Jun 13:31:59 13:36:24 59° 252° (WSW) 13:40:48 437.305
PHONESAT 2.4 27 Jun 13:35:38 13:35:45 10° 214° (SSW) 13:35:53 2401.200-2431.200
AIST 2 27 Jun 13:42:29 13:46:07 28° 49° (NE) 13:49:43 435.215
AO-7 27 Jun 13:54:06 13:59:56 22° 52° (NE) 14:05:47 29.400- 29.500
SWISSCUBE 27 Jun 13:55:49 13:56:37 10° 89° (E) 13:57:26 437.505
ESTCUBE 1 27 Jun 13:56:24 13:58:27 13° 298° (WNW) 14:00:32 437.505/2401.250
JAS-2 27 Jun 13:58:22 14:05:02 32° 265° (W) 14:11:18 435.910
YUBILEINY 27 Jun 14:00:23 14:08:57 62° 281° (WNW) 14:17:39 435.215
Cosmos 2504 27 Jun 14:05:18 14:12:58 51° 89° (E) 14:21:10 435.465 / 435.565
AISAT 27 Jun 14:05:52 14:08:20 15° 297° (WNW) 14:10:48 437.250
TISAT 1 27 Jun 14:05:58 14:10:10 69° 103° (ESE) 14:14:21 437.305
Oscar 19 27 Jun 14:06:06 14:11:03 46° 261° (W) 14:16:00 437.125/150
Gurwin Techsat 1B 27 Jun 14:11:32 14:16:51 85° 75° (ENE) 14:22:12 435.225
UKube-1 27 Jun 14:13:00 14:16:05 19° 294° (WNW) 14:19:09 .
SPROUT 27 Jun 14:16:57 14:20:20 23° 292° (WNW) 14:23:44 437.525
Cosmos 2491 27 Jun 14:17:22 14:23:22 21° 281° (W) 14:29:22 435.465 / 435.565
BEESAT 27 Jun 14:19:09 14:22:21 18° 92° (E) 14:25:33 436.000
ITUPSAT 1 27 Jun 14:19:18 14:22:29 17° 92° (E) 14:25:38 437.325
ISS 27 Jun 14:19:53 14:22:18 19° 18° (NNE) 14:24:43 145.825
ITAMSAT 1 27 Jun 14:25:32 14:30:25 42° 70° (ENE) 14:35:21 435.822/435.867
DX 1 27 Jun 14:32:05 14:33:07 11° 299° (WNW) 14:34:10 434.975-435.025
RS-15 27 Jun 14:33:23 14:44:03 40° 322° (NW) 14:55:17 29.354- 29.394
AIST 2 27 Jun 15:20:57 15:24:32 28° 246° (WSW) 15:28:06 435.215
SWISSCUBE 27 Jun 15:30:09 15:34:58 79° 285° (WNW) 15:39:45 437.505
KKS-1 27 Jun 15:31:34 15:32:17 10° 90° (E) 15:32:59 437.445
SO-50 27 Jun 15:31:40 15:35:29 23° 111° (ESE) 15:39:18 436.795
AO-7 27 Jun 15:43:16 15:51:37 89° 71° (ENE) 16:00:02 29.400- 29.500
TISAT 1 27 Jun 15:44:05 15:45:14 11° 298° (WNW) 15:46:24 437.305
HORYU 2 27 Jun 15:53:16 15:56:10 17° 64° (ENE) 15:59:05 437.375
BEESAT 27 Jun 15:55:46 16:00:23 48° 289° (WNW) 16:04:58 436.000
ISS 27 Jun 15:55:50 15:59:08 88° 40° (NE) 16:02:23 145.825
Gurwin Techsat 1B 27 Jun 15:55:54 15:57:27 11° 272° (W) 15:59:00 435.225
ITUPSAT 1 27 Jun 15:55:55 16:00:34 49° 288° (WNW) 16:05:11 437.325
Cosmos 2504 27 Jun 15:59:22 16:06:37 35° 290° (WNW) 16:14:21 435.465 / 435.565
YUBILEINY 27 Jun 16:05:13 16:07:52 11° 305° (NW) 16:10:33 435.215
ITAMSAT 1 27 Jun 16:05:56 16:10:02 23° 266° (W) 16:14:10 435.822/435.867
STARS 27 Jun 16:06:06 16:08:04 13° 91° (E) 16:10:03 437.465
MOZHAYETS 4 27 Jun 16:45:57 16:50:36 67° 101° (E) 16:55:11
RS-15 27 Jun 16:52:35 17:01:19 22° 356° (N) 17:10:17 29.354- 29.394
CUTE-I 27 Jun 16:58:58 17:01:51 15° 60° (ENE) 17:04:45 437.470
KKS-1 27 Jun 17:04:52 17:09:18 71° 285° (WNW) 17:13:43 437.445
SO-50 27 Jun 17:10:59 17:15:42 45° 308° (NW) 17:20:24 436.795
BRITE-PL 27 Jun 17:19:02 17:23:09 26° 69° (ENE) 17:27:03 437.365/2234.400
AIST 1 27 Jun 17:22:57 17:27:14 62° 95° (E) 17:31:30
HORYU 2 27 Jun 17:28:07 17:32:21 45° 261° (W) 17:36:38 437.375
NOAA 15 27 Jun 17:28:57 17:33:46 37° 68° (ENE) 17:38:36 137.62
AO-7 27 Jun 17:40:05 17:45:22 18° 269° (W) 17:50:41 29.400- 29.500
STARS 27 Jun 17:40:27 17:44:46 57° 287° (WNW) 17:49:05 437.465
LilacSat-2 27 Jun 17:43:13 17:46:17 24° 70° (ENE) 17:49:23 437.200
NOAA 18 27 Jun 17:46:04 17:51:12 44° 69° (ENE) 17:56:23 137.9125
GOMX 1 27 Jun 17:59:05 18:02:58 27° 70° (ENE) 18:06:40 467.674
Cubesat XI-IV 27 Jun 18:01:19 18:06:29 52° 71° (ENE) 18:11:41 437.490
GONETS M04 27 Jun 18:02:21 18:10:03 37° 85° (E) 18:17:42
CUBESAT XI-V 27 Jun 18:10:14 18:14:50 60° 101° (E) 18:19:22 437.345
MOZHAYETS 4 27 Jun 18:24:58 18:27:10 13° 298° (WNW) 18:29:24
HO-68 27 Jun 18:25:49 18:30:23 18° 55° (NE) 18:34:57 435.675
CUTE-I 27 Jun 18:35:53 18:41:13 77° 256° (WSW) 18:46:37 437.470
Cosmos 2499 27 Jun 18:45:03 18:52:46 46° 87° (E) 19:00:56 435.465 / 435.565
BRITE-PL 27 Jun 18:56:50 19:01:30 35° 262° (W) 19:05:53 437.365/2234.400
CUSAT 1 27 Jun 19:02:40 19:06:28 88° 74° (ENE) 19:09:27 437.405
STRAND 1 27 Jun 19:03:57 19:06:55 15° 91° (E) 19:09:52 437.568
AIST 1 27 Jun 19:03:58 19:05:15 11° 292° (WNW) 19:06:33
DOVE 4 27 Jun 19:04:41 19:08:58 59° 75° (ENE) 19:13:07 437.250
RS-15 27 Jun 19:08:38 19:19:18 32° 31° (NNE) 19:29:58 29.354- 29.394
NOAA 15 27 Jun 19:09:07 19:13:35 27° 265° (W) 19:18:04 137.62
DANDE 27 Jun 19:14:16 19:19:11 43° 72° (ENE) 19:22:53 436.750
LilacSat-2 27 Jun 19:17:35 19:20:32 22° 265° (W) 19:23:31 437.200
NOAA 18 27 Jun 19:27:38 19:32:01 25° 265° (W) 19:36:27 137.9125
GOMX 1 27 Jun 19:37:00 19:41:00 28° 264° (W) 19:44:49 467.674
Cubesat XI-IV 27 Jun 19:43:01 19:46:51 20° 267° (W) 19:50:42 437.490
